User: anonymous   Login
Location: Cypress Hills Dark-Sky Preserve - CHICO
(49.6176°N, 110.2634°W)
Time: 07:31:54
(UTC-06:00)
Language:

SPOT 5 - Orbit

View from above orbital plane
View from above orbital plane
View from above satellite
View from above satellite

Ground track
Ground track

The orbit data is extracted from the following two-line orbital elements,

1 27421U 02021A   15209.83406451 -.00000040  00000-0  84861-6 0  9997
2 27421 098.5086 263.9320 0001181 095.4490 036.9277 14.20899624686044
Epoch (UTC): 28 July 2015 20:01:03
Eccentricity: 0.0001181
inclination: 98.5086°
perigee height: 821 km
apogee height: 823 km
right ascension of ascending node: 263.9320°
argument of perigee: 95.4490°
revolutions per day: 14.20899624
mean anomaly at epoch: 36.9277°
orbit number at epoch: 68604

The dashed part of the orbit path shows where the satellite is in the earth's shadow,  

DLR